Wind_Speed
15 14 14 14 15 15 15 15 15 15 16 17 17 18 18 19 20 21 22 23 23 23 22 22 23 23 22 22 22 23 24 24 23 21 18 15 13 11 8 9 11 10 8 9 14 16 15 13 10 8 7 6 5 5 6 5 6 6 5 4 4 3 2
15 14 15 15 15 15 16 15 16 16 16 17 18 18 19 20 21 21 22 23 23 24 24 24 25 25 24 24 24 25 24 23 22 20 18 15 12 11 10 10 13 14 12 12 15 16 14 13 11 8 8 7 6 5 5 4 4 4 4 3 3 2 1
15 15 15 15 16 16 16 16 16 17 17 18 19 19 19 20 21 21 21 23 24 25 25 25 26 26 26 25 25 25 23 21 20 18 17 15 13 13 12 11 14 15 15 17 17 15 13 12 10 9 9 8 6 5 4 3 3 3 3 2 2 1 1
15 15 15 16 17 17 17 17 17 18 18 19 19 20 20 20 20 21 22 23 24 25 25 26 26 26 25 24 24 23 21 19 18 17 16 16 15 14 12 11 14 16 18 21 20 15 13 12 11 10 9 7 5 4 3 2 2 2 2 2 1 1 2
16 16 17 17 17 18 18 18 18 19 19 20 20 20 20 21 21 21 22 23 24 25 24 24 24 24 22 21 22 22 20 19 18 17 16 17 16 15 14 13 13 13 18 23 23 18 14 11 10 10 9 6 4 3 3 2 1 1 1 1 2 2 3
16 17 17 18 18 18 18 18 19 19 20 20 20 20 20 21 22 22 23 24 24 23 22 21 21 20 19 17 17 19 18 18 17 17 17 17 17 16 15 14 13 13 16 21 21 18 14 12 10 9 7 5 4 3 3 2 2 1 1 1 1 2 3
17 18 18 18 18 18 19 19 19 20 20 20 20 21 21 22 22 22 23 23 22 21 20 19 18 18 16 14 14 16 17 17 18 17 17 17 17 16 15 15 14 15 17 19 18 16 14 12 10 8 6 5 3 3 3 2 2 2 2 2 2 3 3
18 18 18 18 18 18 19 19 20 20 21 21 21 22 22 23 23 23 23 22 21 19 18 17 17 16 15 14 14 14 15 15 16 17 17 16 15 14 14 15 16 16 16 17 16 15 13 12 10 8 7 5 4 3 2 2 2 4 5 4 5 6 5
18 18 18 18 19 19 19 20 21 21 22 22 23 23 23 24 24 25 25 23 21 19 17 17 16 15 15 14 14 13 13 13 12 12 14 15 14 14 14 15 16 16 15 15 15 14 13 12 10 8 7 6 4 3 2 2 3 5 6 7 7 6 5
18 19 19 19 19 19 20 20 21 22 22 23 23 24 25 25 26 26 25 24 23 20 18 17 16 16 15 15 14 14 13 13 12 10 10 12 13 12 13 14 14 14 14 13 13 13 12 11 10 7 6 5 3 1 1 2 4 5 7 9 8 5 5
19 19 19 19 20 20 20 21 21 22 22 23 24 25 26 27 26 26 24 23 23 21 20 18 17 16 15 14 14 13 13 13 13 12 11 12 12 11 11 11 12 12 12 11 11 11 10 9 8 6 4 2 2 1 1 3 5 6 7 9 7 6 7
20 20 20 20 20 20 21 22 22 22 23 24 25 26 26 26 26 25 23 22 21 21 20 20 18 17 15 14 13 13 13 13 13 12 12 12 12 11 10 10 10 10 10 9 9 8 7 6 5 4 3 2 2 1 3 4 5 6 6 7 6 8 10
20 20 21 21 21 21 22 22 22 23 24 25 26 26 26 25 24 23 22 21 20 20 20 20 19 18 16 15 14 13 13 13 13 12 12 11 10 10 9 9 8 7 7 6 5 5 4 3 3 2 2 2 2 3 4 5 6 6 7 7 8 11 14
22 21 21 21 22 22 22 22 23 24 25 26 26 26 25 24 23 22 21 20 20 20 20 20 19 19 18 16 15 14 13 13 12 12 11 10 10 9 8 8 7 6 5 4 4 3 3 3 2 2 2 3 4 5 5 6 7 7 8 9 10 14 17
22 22 22 22 22 22 22 23 23 24 25 25 25 25 24 23 23 22 21 20 20 19 19 19 18 17 17 17 16 14 13 12 12 11 11 10 9 8 8 7 6 6 5 4 4 4 4 4 4 4 4 4 5 5 6 6 8 8 9 10 12 15 18
23 23 23 23 23 23 23 24 24 25 25 26 26 25 24 23 22 22 21 20 20 19 19 18 17 17 16 16 16 14 13 12 11 10 10 9 9 8 7 6 6 6 5 5 5 6 5 5 6 5 4 4 5 6 7 8 9 11 10 11 13 16 20
23 23 24 24 24 25 25 25 25 26 26 26 27 26 25 24 22 22 21 21 20 19 18 17 17 16 16 15 15 14 13 12 11 10 10 9 9 7 6 6 6 6 6 6 6 6 6 7 7 6 5 4 5 9 11 10 12 14 12 12 13 14 17
23 24 24 25 26 26 26 27 27 26 26 27 27 26 25 24 23 22 22 21 20 19 18 18 17 16 16 15 15 14 13 12 11 11 11 9 8 8 7 7 7 7 7 7 7 7 8 8 8 8 8 8 10 13 14 15 16 16 14 14 15 14 14
24 24 25 25 26 26 27 28 28 27 26 27 27 26 25 25 25 24 23 22 21 20 19 18 18 16 16 15 15 14 14 13 12 11 10 9 9 8 7 7 7 7 7 8 8 8 9 9 9 10 11 11 11 12 14 15 16 16 16 16 17 15 11
24 25 25 25 26 26 27 28 29 28 27 27 27 26 26 26 26 26 25 24 23 22 21 19 18 17 17 16 15 15 14 13 12 11 10 10 8 7 6 6 7 7 8 8 9 10 11 11 12 12 12 12 12 12 12 13 13 14 15 16 17 15 12
23 24 25 25 26 27 27 28 29 28 27 26 26 26 26 26 27 27 26 25 24 23 22 21 19 18 17 16 15 14 13 12 11 10 10 9 7 6 6 6 7 8 8 10 11 12 13 13 13 13 13 13 13 13 12 11 11 12 13 15 16 16 16
23 24 24 25 26 27 27 28 28 28 27 26 26 25 26 26 26 26 25 25 25 24 22 20 19 17 16 15 14 13 13 12 11 10 9 7 6 6 6 7 7 8 10 11 12 14 15 15 15 15 15 15 15 13 12 12 11 12 12 14 16 16 17
22 22 23 24 25 26 27 28 28 28 28 26 25 25 25 25 25 25 25 25 25 23 21 19 17 16 15 15 14 13 12 11 10 9 8 7 7 7 7 8 9 10 11 13 14 15 17 17 17 17 17 17 16 14 13 13 13 13 13 14 15 16 18
22 22 23 25 25 25 26 28 28 28 27 26 25 25 24 24 24 24 24 23 22 20 19 18 17 17 16 15 15 13 12 11 10 9 9 8 8 8 9 9 10 11 12 13 15 17 18 19 19 19 19 18 17 16 16 16 15 14 14 15 15 16 17
21 23 23 24 25 25 26 28 28 28 27 25 24 24 24 24 23 23 22 21 20 18 18 17 17 17 16 16 15 14 13 12 11 10 10 10 10 10 11 11 11 12 13 15 17 19 20 21 21 20 20 19 19 18 18 17 16 15 15 15 16 17 18
20 21 21 22 23 24 26 27 28 29 29 27 25 24 23 22 21 21 21 20 19 18 18 17 17 17 16 15 14 14 13 12 11 11 11 11 12 12 12 12 13 13 15 18 19 20 21 22 22 21 20 20 20 20 18 17 16 16 15 15 16 17 18
19 19 20 21 21 22 24 26 28 29 30 29 27 25 23 22 21 20 20 20 19 18 18 18 17 16 15 14 14 13 13 13 13 13 13 13 13 13 13 14 14 15 17 19 20 21 22 22 22 21 21 21 21 20 19 17 17 17 16 15 15 17 20
20 20 21 20 20 20 21 23 27 30 32 32 30 28 26 25 23 22 21 20 19 19 18 18 17 15 15 14 14 14 13 14 14 14 14 15 15 15 15 15 16 17 18 19 20 20 21 21 21 21 21 20 21 20 18 17 16 17 17 15 15 17 19
20 21 22 21 21 22 22 22 27 32 34 33 31 30 29 28 26 24 21 20 20 19 18 17 16 15 15 15 14 14 15 15 16 15 16 17 17 17 16 16 17 18 18 18 18 19 20 20 20 21 20 20 21 21 18 16 16 17 17 16 17 19 20
18 19 20 20 20 22 22 23 25 29 30 30 29 28 27 26 24 22 20 19 19 18 17 17 16 15 15 15 15 15 16 17 16 17 18 18 18 17 17 17 17 17 17 16 17 18 19 19 19 20 20 20 21 20 17 16 17 18 18 18 19 21 21
15 16 17 18 19 19 19 19 19 20 24 28 27 25 23 22 21 19 18 18 18 17 16 16 15 15 15 15 15 16 17 17 17 18 19 18 18 18 17 17 17 17 16 16 16 17 17 18 19 20 20 20 20 20 18 17 17 18 20 20 20 21 22
13 13 14 16 17 17 16 15 14 13 17 22 25 23 21 19 18 17 16 16 16 16 16 16 15 15 15 15 16 17 18 18 18 18 19 19 19 19 19 18 18 16 16 16 17 17 18 18 19 20 20 20 20 20 20 20 20 20 22 22 21 22 23
10 10 10 11 13 14 14 13 12 10 12 17 21 21 18 17 16 15 15 15 15 15 15 15 15 16 17 17 18 18 18 19 19 19 19 19 20 20 20 19 18 16 17 18 18 18 19 19 19 19 20 20 21 21 22 23 23 22 22 22 22 23 23
9 9 9 10 11 12 11 10 10 11 12 15 17 18 17 16 15 14 13 13 14 14 14 15 16 17 18 19 19 20 19 19 20 20 20 20 21 21 21 19 18 18 19 19 19 19 20 20 20 20 21 22 22 22 23 24 24 23 23 23 23 23 23
11 10 10 11 12 12 11 11 11 12 13 15 17 17 17 16 16 15 14 14 14 15 16 17 18 19 19 20 21 21 21 20 20 20 21 21 22 22 21 20 19 19 20 19 20 21 21 20 20 21 21 22 23 23 24 24 24 24 24 24 24 23 23
13 12 11 11 12 13 13 13 14 14 15 16 17 17 17 17 17 17 17 17 17 18 19 19 20 20 21 21 22 22 22 22 22 22 22 22 22 22 22 21 21 21 20 20 20 21 21 21 21 21 21 22 24 25 25 25 25 24 24 24 23 23 23
Wind_Direction
259 258 255 251 248 244 241 237 232 227 221 216 212 209 205 199 194 191 186 180 178 175 174 172 165 159 157 157 155 152 153 155 157 160 158 154 152 144 141 160 155 135 124 147 170 171 166 168 172 167 166 171 168 159 149 145 138 135 140 147 152 161 168
255 252 249 244 242 239 235 233 228 222 217 213 209 204 199 195 192 189 184 177 173 170 168 167 161 154 152 153 150 147 148 149 150 155 154 146 144 143 149 170 170 155 143 148 160 163 163 168 177 176 168 168 174 168 158 150 139 136 140 139 139 144 135
250 247 244 240 237 235 232 228 224 220 215 210 207 202 197 194 192 190 184 178 172 167 165 163 159 154 152 153 149 145 145 147 149 154 153 145 143 147 155 175 184 175 158 150 155 161 163 165 174 177 167 165 172 168 161 155 136 125 118 114 119 115 52
245 242 239 236 233 231 229 226 221 217 213 209 206 203 199 195 192 189 185 179 172 167 165 162 158 153 154 156 152 148 149 151 152 155 153 145 141 145 150 165 182 185 173 158 153 159 165 166 169 167 161 163 168 169 167 155 132 114 97 81 50 10 353
239 237 235 234 232 230 227 224 220 216 211 208 205 203 200 195 192 188 183 177 171 167 166 164 159 155 155 158 155 151 153 155 154 154 152 145 141 144 148 153 163 177 177 165 156 154 162 168 167 161 157 160 167 178 185 172 156 133 97 61 25 358 342
234 234 232 231 230 228 226 223 219 216 211 207 203 200 198 194 190 185 179 174 169 166 165 164 161 157 157 161 160 155 155 156 154 153 151 148 146 148 150 149 147 154 163 162 156 154 157 163 165 160 157 159 166 183 196 206 222 219 253 312 338 342 336
231 231 230 229 227 226 225 222 218 215 211 207 203 198 194 190 185 179 174 170 166 163 162 162 160 158 159 164 165 161 158 155 152 150 148 148 149 149 149 147 144 146 154 156 154 152 155 159 161 163 163 162 167 186 206 249 266 254 272 297 323 330 330
230 228 226 226 225 224 223 221 218 215 211 206 201 197 192 186 181 175 169 165 163 161 160 160 159 157 158 161 162 160 158 157 156 153 148 147 149 150 149 149 149 150 153 155 153 151 154 157 158 161 163 158 165 196 237 291 318 311 307 317 335 334 327
227 226 223 222 222 222 221 220 218 216 212 207 200 194 189 184 179 174 168 164 162 161 161 160 159 157 158 159 159 158 157 155 157 159 156 154 156 155 153 151 152 153 154 154 153 151 153 157 158 158 157 159 172 206 265 311 338 332 320 320 328 330 326
224 223 222 221 219 219 218 218 218 216 212 207 200 192 186 180 176 173 170 167 164 162 161 161 161 161 162 163 162 161 160 157 155 157 157 156 156 156 156 154 152 153 155 156 156 156 159 161 160 158 157 165 183 209 283 313 332 331 326 329 331 331 330
221 220 221 221 219 218 217 216 216 214 209 204 198 191 184 179 175 173 172 171 168 165 163 164 164 164 165 168 167 165 164 163 161 158 154 153 152 151 154 157 155 155 159 162 161 160 163 163 160 161 162 167 183 196 259 312 331 333 337 347 346 329 324
219 219 219 218 217 217 216 215 214 209 204 198 194 190 185 180 177 175 174 173 172 170 169 167 166 166 167 169 170 169 166 163 160 158 155 154 154 154 156 158 159 162 166 170 167 162 162 164 159 159 167 181 199 247 302 318 330 333 335 343 333 308 306
217 217 217 216 216 215 214 213 209 203 198 195 190 187 185 182 180 178 177 177 177 176 175 173 170 167 166 167 169 169 167 163 160 157 156 156 157 158 158 158 162 169 172 176 177 168 166 176 175 173 191 238 273 293 308 314 320 325 322 317 307 298 298
214 215 215 215 214 213 211 208 203 197 194 192 188 187 186 184 182 181 181 181 181 180 179 177 176 171 167 168 169 169 168 167 164 162 162 162 161 161 160 162 168 178 186 193 200 197 197 216 235 243 254 277 290 298 306 308 309 311 307 299 295 294 295
214 213 213 213 212 209 207 203 196 192 192 190 188 187 186 184 183 182 181 181 182 182 181 179 178 176 173 170 171 172 173 172 171 169 167 167 168 166 165 170 182 196 208 219 230 235 237 243 258 271 276 286 302 303 298 295 291 290 287 285 284 285 288
213 212 211 210 208 206 203 197 192 190 190 190 190 188 186 184 183 182 180 180 181 182 182 180 179 179 177 176 175 175 177 178 176 175 174 173 174 173 173 184 203 216 225 235 241 249 254 255 260 269 281 305 313 296 284 278 275 275 273 273 274 275 279
212 212 211 209 206 204 199 193 190 189 189 190 191 189 186 184 183 181 180 180 180 182 181 181 182 182 180 180 180 179 180 183 182 181 182 182 183 183 186 200 217 226 233 239 244 250 255 256 259 260 259 256 256 264 270 269 267 271 269 262 261 266 272
211 210 210 209 206 203 197 191 189 188 189 191 193 191 188 185 182 180 180 179 179 181 182 180 181 183 184 184 184 185 187 189 190 190 192 192 193 194 198 209 221 226 230 237 244 251 256 259 262 264 263 253 247 253 261 265 266 270 267 256 251 257 270
208 207 208 207 206 203 197 192 189 187 189 193 194 193 191 188 183 180 180 180 179 179 181 183 182 184 188 189 189 191 193 194 196 197 198 199 201 203 204 211 220 223 228 236 245 252 258 263 264 267 268 264 261 260 263 266 268 265 260 256 253 254 265
206 205 205 204 202 200 197 193 189 187 190 195 197 195 194 191 187 184 183 182 182 181 181 185 187 188 192 194 193 195 197 198 199 200 203 207 209 211 212 212 220 229 237 246 254 258 262 266 267 268 269 269 274 280 281 279 274 263 256 254 254 252 247
203 203 202 201 200 199 196 194 191 188 192 197 199 198 197 195 193 190 187 184 185 188 188 189 192 193 195 197 197 199 201 201 202 204 210 216 217 220 227 230 237 248 256 262 268 271 273 274 274 275 278 282 288 296 297 289 277 264 256 251 252 252 244
199 199 199 199 199 198 196 195 193 190 193 199 201 200 200 199 196 194 190 187 188 191 193 195 196 196 197 198 198 201 203 206 209 212 218 224 227 235 248 255 259 265 269 273 277 279 279 280 282 284 287 292 297 301 298 288 275 265 258 252 252 253 249
195 195 195 195 197 198 197 195 193 192 194 199 202 202 202 201 199 197 196 195 194 194 196 197 197 195 195 196 198 201 205 210 217 223 229 236 242 250 258 265 267 269 273 276 278 279 281 283 286 290 292 294 297 296 289 280 271 264 260 257 256 255 256
192 191 192 193 194 196 197 195 193 193 196 199 201 202 202 201 200 198 198 199 199 199 197 196 193 192 193 194 197 202 206 213 220 228 237 246 252 258 261 265 269 273 274 275 274 275 280 285 288 290 292 293 294 291 283 276 271 266 264 262 260 258 257
192 193 193 193 194 196 198 197 195 195 197 199 201 202 202 201 200 199 198 198 198 197 195 193 191 191 193 194 198 203 208 216 224 232 240 247 252 259 264 268 273 275 273 272 273 274 278 283 286 288 290 291 291 288 283 279 275 270 263 260 261 259 256
195 195 195 196 198 198 198 198 199 199 199 201 202 203 203 201 200 199 197 196 195 192 189 189 190 192 194 196 201 208 214 222 229 236 242 248 254 260 265 270 274 275 273 272 274 275 277 281 286 287 287 289 289 286 284 282 281 275 266 261 264 265 260
197 198 198 199 199 199 198 200 201 201 201 202 202 202 202 201 200 198 195 193 192 189 189 190 192 194 196 200 206 214 222 228 234 241 248 254 258 262 266 271 274 274 273 273 274 276 279 282 285 285 285 287 287 285 282 282 283 281 274 269 272 273 268
202 202 203 202 199 196 196 199 203 204 204 204 204 203 203 203 203 200 197 194 191 189 190 192 194 196 200 205 212 220 228 236 242 249 255 259 262 265 268 272 274 273 273 274 275 277 280 282 283 284 284 285 284 281 280 280 281 280 277 275 273 269 267
209 209 208 206 204 200 197 201 208 211 209 207 207 207 207 207 207 204 200 197 195 193 193 194 196 201 205 210 218 226 234 243 249 256 261 263 265 268 270 272 273 273 275 277 277 277 278 281 282 281 281 281 280 278 277 278 279 279 277 275 268 262 263
218 217 214 211 211 210 208 211 217 217 211 208 208 210 210 212 212 209 204 199 197 196 197 198 200 206 211 217 225 233 242 250 255 260 264 267 269 271 273 274 273 275 278 278 276 276 277 278 278 277 277 277 277 277 276 273 275 276 275 269 263 261 264
226 226 221 215 214 215 216 220 225 223 215 210 209 210 211 212 214 213 209 204 199 197 199 202 205 212 219 226 234 242 250 256 260 264 268 271 274 275 276 276 277 281 282 279 275 275 274 273 273 273 274 275 276 278 277 272 270 272 270 266 262 261 263
227 229 226 221 219 218 219 223 227 227 219 212 209 208 209 210 211 210 207 202 200 200 203 207 212 220 227 233 240 249 256 259 262 267 271 273 275 276 277 279 283 286 284 277 274 274 272 271 271 271 272 274 274 274 274 271 267 267 267 266 265 262 262
217 220 218 215 216 217 218 219 218 213 207 205 204 204 203 201 201 200 197 197 199 204 209 215 223 230 236 240 246 253 258 261 263 268 270 271 273 276 280 284 286 284 279 274 274 274 272 271 271 270 270 271 269 267 268 266 264 265 265 264 262 260 260
188 195 195 194 195 198 198 196 191 185 183 185 188 190 190 188 185 185 191 200 208 215 222 227 233 239 244 249 253 256 258 260 263 266 269 271 274 277 280 282 281 278 275 274 274 272 270 269 269 267 266 265 264 262 261 260 259 260 260 258 257 257 258
162 168 174 175 174 174 172 168 165 163 163 167 171 175 178 180 180 183 193 207 216 225 232 237 242 248 253 258 261 262 262 264 266 268 271 273 276 278 279 279 277 275 274 274 272 270 268 267 266 264 262 261 261 258 256 256 256 257 256 255 256 257 258
157 153 154 156 159 161 162 162 162 161 162 165 170 175 179 184 191 198 207 215 223 230 237 242 248 254 259 263 265 267 269 270 271 272 274 275 276 276 276 276 276 275 274 273 270 268 268 266 264 262 260 258 258 256 255 256 257 257 257 257 257 258 259
Height
769 769 770 771 772 772 773 773 774 774 774 775 776 777 777 778 778 779 779 779 780 781 783 783 784 785 787 788 789 792 795 797 799 802 804 805 805 807 811 815 817 822 829 833 834 835 836 837 839 840 839 840 840 840 839 838 837 838 838 839 839 839 839
767 767 768 769 770 771 771 772 772 773 773 774 775 776 777 778 778 779 779 780 780 781 782 783 784 785 787 788 789 791 794 796 798 800 803 803 803 806 811 814 816 820 825 830 833 834 835 836 838 838 838 839 840 840 839 838 837 837 837 838 838 838 838
765 765 766 767 768 769 770 771 771 772 772 773 774 775 776 777 778 779 780 780 781 781 782 783 784 785 787 788 789 790 793 795 797 799 801 802 803 806 810 813 815 818 822 826 830 832 834 835 837 837 837 838 839 839 838 837 837 836 836 837 837 837 837
763 764 764 765 766 768 768 769 770 771 771 772 773 774 775 777 778 779 780 780 781 782 783 784 785 786 787 788 788 790 792 794 796 799 800 802 803 806 809 812 814 816 818 822 826 830 833 834 835 836 836 837 838 838 837 837 836 836 836 836 836 836 836
761 762 763 764 765 766 767 768 769 769 770 771 772 773 774 776 777 778 780 781 781 782 784 785 786 787 789 789 789 790 792 794 796 798 800 801 803 805 809 811 813 815 816 819 822 827 831 833 834 834 835 836 837 836 836 836 835 835 835 835 835 835 835
760 760 761 762 763 764 765 767 768 768 769 770 771 772 773 775 776 778 779 781 782 783 784 785 787 788 790 791 791 792 793 794 796 797 799 801 803 806 808 810 812 814 816 819 822 825 829 831 832 833 834 835 835 835 835 834 834 834 834 834 834 834 834
758 759 760 761 762 763 764 765 767 768 768 769 770 771 773 774 776 778 780 781 782 784 785 787 788 790 791 793 794 794 795 795 796 797 799 801 803 805 807 809 812 814 816 819 822 825 827 829 830 831 832 833 833 833 833 833 833 833 833 833 833 832 832
756 757 758 760 761 762 763 764 765 767 767 768 769 770 772 773 775 777 779 781 783 785 786 788 789 791 793 794 795 796 796 797 797 798 799 801 803 804 806 809 812 814 817 819 821 823 826 827 829 830 830 830 831 831 831 831 831 831 831 831 831 830 830
755 756 757 758 759 761 762 763 764 765 766 767 768 770 771 773 775 777 778 780 783 785 786 788 790 792 794 795 796 797 798 798 799 800 800 801 803 804 807 809 812 814 816 818 820 822 824 826 827 828 828 828 829 829 830 830 830 830 829 829 829 829 829
753 754 756 757 758 759 761 762 763 764 765 767 768 769 771 772 774 776 778 779 781 784 786 788 790 792 794 795 796 797 798 799 800 801 802 803 804 805 807 809 811 813 815 817 819 821 823 824 825 826 826 827 827 828 829 829 829 829 828 827 827 827 827
751 753 754 755 757 758 759 761 762 764 765 766 768 769 770 772 774 776 778 780 781 783 786 788 790 792 794 795 796 797 798 799 800 802 803 804 805 806 808 809 811 812 814 816 818 820 821 822 823 824 825 825 826 827 828 828 828 827 826 826 826 826 826
750 751 753 754 755 757 758 760 761 763 765 766 767 769 770 772 774 776 778 780 782 783 785 787 790 792 794 795 796 797 798 800 801 802 803 804 805 806 808 809 810 812 813 815 817 818 820 821 821 822 823 824 825 826 826 826 826 825 825 825 825 825 825
748 749 751 752 754 756 757 758 760 762 764 765 767 769 770 772 774 776 778 780 782 783 785 787 789 791 793 795 796 797 799 800 801 802 804 805 806 807 808 809 810 812 813 814 815 817 818 819 820 821 822 822 823 824 824 824 824 824 824 824 825 824 824
746 748 750 751 753 754 756 758 759 761 763 765 767 768 770 772 773 775 777 779 781 783 785 787 788 790 792 794 796 797 798 800 801 802 804 805 806 807 808 809 810 811 812 813 815 816 817 818 818 819 820 820 821 822 822 822 823 823 823 824 824 823 822
744 746 748 750 752 753 755 757 759 761 763 765 766 768 769 771 772 774 777 779 781 783 785 787 788 790 791 793 795 797 798 799 801 802 803 804 805 806 807 808 809 810 811 813 814 815 816 816 817 817 818 819 820 820 821 821 821 822 822 823 823 822 821
743 745 746 748 750 752 754 756 758 760 762 764 766 767 768 770 771 773 776 778 780 783 784 786 787 789 791 792 794 796 798 799 800 801 803 804 805 806 807 808 809 809 811 812 813 813 814 815 815 816 817 818 818 818 819 820 820 820 821 821 821 820 819
741 743 745 747 749 750 752 754 756 758 760 762 764 765 767 768 770 772 775 777 780 782 784 785 787 788 790 791 793 795 796 798 799 800 802 803 804 805 806 807 807 808 810 810 811 812 812 813 814 815 816 817 817 817 817 818 818 818 819 819 819 818 817
740 742 744 745 747 749 751 752 754 756 758 760 762 764 765 766 768 771 773 776 779 781 783 784 786 787 789 790 792 793 795 797 798 799 800 801 802 803 804 805 806 807 808 809 810 811 811 811 812 813 814 815 816 815 815 815 815 816 816 816 816 816 815
738 740 742 744 746 747 749 751 752 755 756 758 760 762 764 765 766 769 772 774 777 780 782 783 785 786 787 789 790 792 793 795 796 798 799 800 800 802 803 804 805 806 807 808 809 809 810 810 811 812 812 813 813 814 813 813 813 813 813 813 813 813 813
737 738 740 742 744 746 748 749 751 753 754 756 758 760 762 763 764 766 769 772 775 777 780 782 783 784 786 787 789 790 792 793 795 796 797 798 799 801 802 803 804 805 806 806 807 808 808 809 809 810 810 811 811 811 811 810 810 810 810 810 810 810 811
735 737 739 741 743 745 747 748 749 751 753 754 756 758 760 761 762 764 767 770 773 775 777 779 781 782 784 786 787 789 790 792 793 794 795 797 798 799 800 801 802 803 804 805 805 806 806 806 807 807 808 808 808 808 808 807 807 807 807 807 807 807 807
734 736 737 740 742 744 746 747 749 750 751 752 755 757 758 759 761 763 765 768 770 773 775 777 779 781 783 784 786 788 789 790 792 793 794 795 797 798 798 799 800 801 802 802 803 803 803 804 804 804 805 805 805 805 805 805 804 804 804 804 804 804 804
732 734 736 738 740 742 744 746 748 749 750 751 753 755 757 758 760 761 763 765 767 770 772 775 777 779 781 783 785 786 788 789 790 791 793 794 795 796 797 798 798 799 800 800 800 800 800 801 801 801 802 802 802 802 802 802 801 801 801 801 800 800 800
731 733 735 737 738 740 742 744 746 748 749 750 752 754 756 757 759 760 762 763 766 768 770 772 774 776 778 781 783 784 786 787 789 790 791 792 793 794 795 795 796 797 797 797 797 797 797 798 798 798 799 799 799 799 799 798 798 798 798 797 797 797 797
729 731 733 735 737 738 740 742 744 746 748 749 751 753 755 756 758 759 761 762 764 767 769 771 773 774 776 778 780 782 783 785 786 788 789 790 791 791 792 793 794 794 794 794 795 795 795 795 795 796 796 796 796 795 795 795 794 794 794 794 794 794 794
728 730 731 733 735 736 738 740 742 744 746 748 750 752 754 756 758 759 760 762 763 765 767 769 771 773 775 776 778 780 781 782 784 785 787 788 788 789 790 790 791 791 791 791 791 792 792 792 792 793 792 792 792 791 791 791 791 790 791 791 791 790 790
727 729 730 731 733 735 736 737 739 741 743 745 748 750 753 755 757 758 759 760 762 764 766 767 769 771 773 775 777 778 779 781 782 783 784 785 786 787 787 788 788 788 788 788 788 788 788 788 789 789 789 789 788 788 788 788 788 787 787 788 788 787 786
725 727 728 730 732 733 734 735 736 737 739 742 745 748 750 753 755 756 758 759 761 762 764 766 768 770 772 773 775 776 778 779 780 781 782 783 783 784 784 784 784 784 784 784 785 785 784 784 785 785 785 785 785 784 785 785 785 784 784 785 786 784 782
723 725 727 729 730 731 732 732 732 733 736 740 743 745 748 750 752 754 756 758 759 761 763 764 766 768 770 771 773 774 775 776 777 778 779 780 781 781 781 781 781 781 781 781 781 781 780 781 781 781 782 782 781 781 782 782 781 781 781 782 782 781 779
723 724 725 727 729 730 730 730 731 733 736 739 742 744 747 749 751 753 755 757 758 760 761 763 765 766 768 769 771 772 773 773 774 775 776 777 777 778 778 778 778 778 778 778 778 777 777 777 778 777 778 779 778 778 779 779 779 779 779 779 779 777 776
722 723 724 726 727 728 729 730 731 733 735 738 741 744 746 749 751 753 754 756 757 758 759 761 763 764 765 767 768 769 770 771 772 773 773 774 774 774 774 775 775 775 775 775 774 774 774 774 774 774 774 775 775 774 775 776 776 777 776 776 776 774 773
722 723 724 725 726 727 728 730 731 732 734 736 739 742 745 747 750 751 753 754 756 757 757 759 760 762 763 764 765 766 767 767 768 769 770 770 771 771 771 771 772 772 772 771 771 771 770 770 771 771 771 771 772 772 772 773 773 774 773 773 772 771 770
720 722 723 724 725 726 727 729 730 731 733 735 738 741 743 746 748 750 752 753 754 755 756 757 758 760 760 761 762 763 763 764 765 765 766 766 767 767 767 768 768 768 768 768 768 767 767 767 767 768 768 768 768 769 769 769 770 770 770 769 768 768 767
719 720 721 722 724 725 727 728 729 730 732 734 737 740 742 745 747 749 751 752 753 754 755 756 757 758 758 759 759 760 760 761 761 761 762 762 763 763 764 764 765 765 764 764 764 764 764 764 764 764 764 764 765 765 766 766 766 766 766 765 765 764 764
718 719 720 721 722 724 726 728 729 730 732 734 736 739 741 744 746 747 749 750 751 752 753 754 755 755 756 757 757 758 758 758 758 758 758 758 758 759 760 760 760 760 760 760 761 761 761 761 761 761 761 761 761 761 761 761 762 762 762 761 761 761 761
719 719 720 721 722 723 725 727 729 730 732 734 736 738 740 742 743 745 746 747 748 748 750 751 751 752 753 754 754 755 755 755 755 755 755 755 755 755 756 756 756 756 756 756 757 757 757 758 757 757 758 758 757 757 757 757 758 758 758 757 758 757 757